| time (UTC) | temp F | wind direction | speed MPH | gust MPH | rain 1hr in | rain 24hr in | rain mn in | humidity % | barometer mb |
| 20260509153002 | 66 | 64 | 5.0 | 9.0 | 0.00 | 0.00 | 0.00 | 77 | 1018.3 |
| 20260509151501 | 66 | 64 | 5.0 | 10.0 | 0.00 | 0.00 | 0.00 | 76 | 1018.3 |
| 20260509150001 | 67 | 43 | 7.0 | 12.0 | 0.00 | 0.02 | 0.00 | 73 | 1018.3 |
| 20260509144600 | 67 | 40 | 7.0 | 10.0 | 0.00 | 0.02 | 0.00 | 71 | 1018.3 |
| 20260509143100 | 67 | 50 | 6.0 | 10.0 | 0.00 | 0.02 | 0.00 | 69 | 1018.2 |
| 20260509141559 | 67 | 53 | 7.0 | 11.0 | 0.00 | 0.02 | 0.00 | 68 | 1018.2 |
| 20260509134557 | 67 | 56 | 8.0 | 13.0 | 0.00 | 0.02 | 0.00 | 71 | 1018.2 |
| 20260509133058 | 66 | 55 | 10.0 | 13.0 | 0.00 | 0.02 | 0.00 | 70 | 1018.2 |
| 20260509131600 | 67 | 73 | 7.0 | 12.0 | 0.00 | 0.02 | 0.00 | 73 | 1018.2 |
| 20260509130106 | 68 | 77 | 8.0 | 14.0 | 0.00 | 0.02 | 0.00 | 68 | 1018.2 |
| 20260509124558 | 70 | 47 | 8.0 | 13.0 | 0.00 | 0.03 | 0.00 | 56 | 1018.1 |
| 20260509123055 | 71 | 103 | 7.0 | 11.0 | 0.00 | 0.03 | 0.00 | 53 | 1018.2 |
| 20260509121609 | 71 | 85 | 5.0 | 13.0 | 0.00 | 0.03 | 0.00 | 55 | 1018.3 |
| 20260509120052 | 71 | 32 | 6.0 | 14.0 | 0.00 | 0.03 | 0.00 | 54 | 1018.4 |
| 20260509114557 | 69 | 39 | 7.0 | 14.0 | 0.00 | 0.06 | 0.00 | 64 | 1018.4 |
| 20260509113055 | 66 | 84 | 6.0 | 14.0 | 0.00 | 0.06 | 0.00 | 74 | 1018.4 |
| 20260509111548 | 67 | 37 | 10.0 | 13.0 | 0.00 | 0.06 | 0.00 | 70 | 1018.4 |
| 20260509110049 | 69 | 90 | 5.0 | 10.0 | 0.00 | 0.06 | 0.00 | 67 | 1018.4 |
| 20260509104545 | 68 | 16 | 6.0 | 11.0 | 0.00 | 0.13 | 0.00 | 66 | 1018.5 |
| 20260509103057 | 66 | 77 | 9.0 | 12.0 | 0.00 | 0.13 | 0.00 | 73 | 1018.5 |
| 20260509101558 | 66 | 61 | 8.0 | 13.0 | 0.00 | 0.13 | 0.00 | 75 | 1018.3 |
| 20260509100044 | 67 | 63 | 7.0 | 13.0 | 0.00 | 0.13 | 0.00 | 67 | 1018.3 |
| 20260509094546 | 68 | 54 | 8.0 | 12.0 | 0.00 | 0.22 | 0.00 | 64 | 1018.4 |
| 20260509093040 | 68 | 82 | 7.0 | 12.0 | 0.00 | 0.22 | 0.00 | 65 | 1018.5 |
| 20260509091537 | 68 | 39 | 3.0 | 13.0 | 0.00 | 0.22 | 0.00 | 66 | 1018.5 |
| 20260509090040 | 67 | 66 | 7.0 | 12.0 | 0.00 | 0.22 | 0.00 | 67 | 1018.5 |
| 20260509084533 | 66 | 70 | 6.0 | 10.0 | 0.00 | 0.26 | 0.00 | 70 | 1018.3 |
| 20260509083044 | 65 | 72 | 4.0 | 9.0 | 0.00 | 0.26 | 0.00 | 73 | 1018.3 |
| 20260509081531 | 64 | 82 | 8.0 | 12.0 | 0.00 | 0.26 | 0.00 | 74 | 1018.4 |
| 20260509080030 | 65 | 56 | 3.0 | 6.0 | 0.00 | 0.26 | 0.00 | 73 | 1018.5 |
| 20260509074528 | 64 | 82 | 4.0 | 6.0 | 0.00 | 0.30 | 0.00 | 75 | 1018.5 |
| 20260509073031 | 64 | 42 | 5.0 | 7.0 | 0.00 | 0.30 | 0.00 | 79 | 1018.5 |
| 20260509071534 | 64 | 42 | 1.0 | 5.0 | 0.00 | 0.30 | 0.00 | 77 | 1018.3 |
| 20260509070027 | 65 | 82 | 0.0 | 3.0 | 0.00 | 0.30 | 0.00 | 75 | 1018.4 |
| 20260509064524 | 65 | 285 | 0.0 | 3.0 | 0.00 | 0.31 | 0.00 | 75 | 1018.3 |
| 20260509063023 | 64 | 340 | 0.0 | 2.0 | 0.00 | 0.31 | 0.00 | 79 | 1018.3 |
| 20260509061521 | 62 | 262 | 0.0 | 2.0 | 0.00 | 0.31 | 0.00 | 81 | 1018.3 |
| 20260509060015 | 61 | 308 | 1.0 | 3.0 | 0.00 | 0.31 | 0.00 | 85 | 1018.1 |
| 20260509054509 | 59 | 279 | 0.0 | 3.0 | 0.00 | 0.31 | 0.00 | 87 | 1018.1 |
| 20260509053007 | 59 | 227 | 1.0 | 4.0 | 0.00 | 0.31 | 0.00 | 88 | 1017.9 |
| 20260509051506 | 58 | 261 | 1.0 | 5.0 | 0.00 | 0.31 | 0.00 | 89 | 1017.8 |
| 20260509050006 | 58 | 259 | 1.0 | 6.0 | 0.00 | 0.31 | 0.00 | 89 | 1017.7 |
| 20260509044505 | 58 | 265 | 0.0 | 4.0 | 0.00 | 0.31 | 0.00 | 89 | 1017.6 |
| 20260509043004 | 58 | 267 | 0.0 | 2.0 | 0.00 | 0.31 | 0.00 | 89 | 1017.7 |
| 20260509041504 | 58 | 271 | 0.0 | 0.0 | 0.00 | 0.31 | 0.00 | 89 | 1017.8 |
| 20260509040004 | 58 | 278 | 0.0 | 3.0 | 0.00 | 0.31 | 0.00 | 89 | 1017.7 |
| 20260509034502 | 58 | 310 | 2.0 | 5.0 | 0.00 | 0.31 | 0.00 | 90 | 1017.7 |
| 20260509033002 | 58 | 286 | 2.0 | 5.0 | 0.00 | 0.31 | 0.00 | 90 | 1017.7 |
| 20260509031503 | 58 | 286 | 2.0 | 5.0 | 0.00 | 0.31 | 0.00 | 90 | 1017.8 |
| 20260509030114 | 57 | 265 | 1.0 | 4.0 | 0.00 | 0.31 | 0.00 | 90 | 1017.7 |
| 20260509024602 | 57 | 298 | 1.0 | 4.0 | 0.00 | 0.31 | 0.00 | 90 | 1017.5 |
| 20260509023100 | 57 | 279 | 0.0 | 3.0 | 0.00 | 0.31 | 0.00 | 90 | 1017.5 |
| 20260509021601 | 57 | 300 | 1.0 | 4.0 | 0.00 | 0.31 | 0.00 | 90 | 1017.5 |
| 20260509020107 | 58 | 307 | 2.0 | 4.0 | 0.00 | 0.31 | 0.00 | 90 | 1017.6 |
| 20260509014557 | 58 | 332 | 1.0 | 4.0 | 0.00 | 0.31 | 0.00 | 90 | 1017.4 |
| 20260509013101 | 58 | 359 | 2.0 | 6.0 | 0.00 | 0.31 | 0.00 | 90 | 1017.3 |
| 20260509011558 | 58 | 345 | 3.0 | 6.0 | 0.00 | 0.31 | 0.00 | 92 | 1017.2 |
| 20260509010054 | 57 | 286 | 1.0 | 4.0 | 0.00 | 0.31 | 0.00 | 92 | 1017.4 |
| 20260509004559 | 57 | 323 | 1.0 | 5.0 | 0.00 | 0.31 | 0.00 | 92 | 1017.4 |
| 20260509003056 | 57 | 282 | 1.0 | 5.0 | 0.00 | 0.31 | 0.00 | 92 | 1017.5 |
| 20260509001551 | 57 | 274 | 0.0 | 5.0 | 0.00 | 0.31 | 0.00 | 93 | 1017.6 |
| 20260509000050 | 57 | 263 | 2.0 | 4.0 | 0.00 | 0.31 | 0.00 | 93 | 1017.5 |
| 20260508234548 | 58 | 307 | 1.0 | 4.0 | 0.00 | 0.31 | 0.00 | 93 | 1017.6 |
| 20260508233047 | 58 | 352 | 0.0 | 3.0 | 0.00 | 0.31 | 0.00 | 93 | 1017.7 |
| 20260508231545 | 58 | 296 | 1.0 | 5.0 | 0.00 | 0.31 | 0.00 | 93 | 1017.7 |
| 20260508230043 | 58 | 15 | 0.0 | 5.0 | 0.00 | 0.31 | 0.00 | 93 | 1017.7 |
| 20260508224554 | 59 | 30 | 2.0 | 6.0 | 0.00 | 0.31 | 0.00 | 93 | 1017.8 |
| 20260508223049 | 59 | 18 | 1.0 | 6.0 | 0.00 | 0.31 | 0.00 | 93 | 1017.9 |
| 20260508221538 | 59 | 336 | 3.0 | 6.0 | 0.00 | 0.31 | 0.00 | 94 | 1017.9 |
| 20260508220044 | 60 | 320 | 3.0 | 7.0 | 0.00 | 0.31 | 0.00 | 94 | 1017.9 |
| 20260508214535 | 60 | 16 | 2.0 | 6.0 | 0.00 | 0.31 | 0.31 | 94 | 1017.7 |
| 20260508213035 | 60 | 8 | 3.0 | 7.0 | 0.00 | 0.31 | 0.31 | 95 | 1017.5 |
| 20260508211534 | 59 | 28 | 4.0 | 9.0 | 0.00 | 0.31 | 0.31 | 95 | 1017.6 |
| 20260508210034 | 59 | 11 | 2.0 | 7.0 | 0.00 | 0.31 | 0.31 | 95 | 1017.5 |
| 20260508204535 | 59 | 360 | 1.0 | 6.0 | 0.00 | 0.31 | 0.31 | 95 | 1017.7 |
| 20260508203036 | 59 | 32 | 3.0 | 8.0 | 0.00 | 0.31 | 0.31 | 96 | 1017.9 |
| 20260508201532 | 59 | 338 | 2.0 | 6.0 | 0.00 | 0.31 | 0.31 | 96 | 1017.9 |
| 20260508200030 | 59 | 345 | 0.0 | 3.0 | 0.00 | 0.31 | 0.31 | 96 | 1017.8 |
| 20260508194537 | 59 | 340 | 1.0 | 5.0 | 0.00 | 0.31 | 0.31 | 96 | 1017.7 |
| 20260508193027 | 59 | 303 | 0.0 | 2.0 | 0.00 | 0.31 | 0.31 | 96 | 1017.5 |
| 20260508191532 | 59 | 348 | 2.0 | 6.0 | 0.00 | 0.31 | 0.31 | 96 | 1017.4 |
| 20260508190024 | 59 | 8 | 0.0 | 5.0 | 0.00 | 0.31 | 0.31 | 96 | 1017.1 |
| 20260508184523 | 59 | 58 | 1.0 | 5.0 | 0.00 | 0.31 | 0.31 | 96 | 1016.8 |
| 20260508183026 | 59 | 37 | 4.0 | 6.0 | 0.00 | 0.31 | 0.31 | 96 | 1016.4 |
| 20260508181517 | 59 | 59 | 5.0 | 10.0 | 0.00 | 0.31 | 0.31 | 96 | 1016.1 |
| 20260508180019 | 59 | 69 | 5.0 | 10.0 | 0.00 | 0.31 | 0.31 | 96 | 1015.9 |
| 20260508174512 | 59 | 66 | 4.0 | 9.0 | 0.00 | 0.31 | 0.31 | 96 | 1015.8 |
| 20260508173011 | 59 | 37 | 8.0 | 13.0 | 0.00 | 0.31 | 0.31 | 96 | 1015.7 |
| 20260508171511 | 58 | 23 | 6.0 | 12.0 | 0.00 | 0.31 | 0.31 | 96 | 1015.5 |
| 20260508170009 | 58 | 57 | 8.0 | 15.0 | 0.00 | 0.31 | 0.31 | 96 | 1015.4 |
| 20260508164507 | 58 | 59 | 7.0 | 10.0 | 0.00 | 0.31 | 0.31 | 97 | 1015.3 |
| 20260508163005 | 58 | 79 | 5.0 | 8.0 | 0.00 | 0.31 | 0.31 | 97 | 1015.1 |
| 20260508161504 | 58 | 49 | 3.0 | 8.0 | 0.00 | 0.31 | 0.31 | 97 | 1014.9 |
| 20260508160009 | 58 | 168 | 0.0 | 11.0 | 0.00 | 0.31 | 0.31 | 97 | 1014.6 |
| 20260508154504 | 57 | 148 | 5.0 | 21.0 | 0.01 | 0.31 | 0.31 | 97 | 1014.8 |